EW3230 Weather Reports


time (UTC)temp
C
wind
direction
speed
KPH
gust
KPH
rain 1hr
cm
rain 24hr
cm
rain mn
cm
humidity
%
barometer
mb
20260831111617 17 89 0.0 1.6 0.00 0.36 0.08 60 1019.9
20260831110617 17 70 0.0 0.0 0.00 0.36 0.08 60 1019.7
20260831105618 17 69 0.0 0.0 0.00 0.36 0.08 60 1019.7
20260831104617 17 69 0.0 0.0 0.00 0.36 0.08 60 1019.7
20260831103618 17 70 0.0 0.0 0.00 0.36 0.08 60 1019.6
20260831102615 17 70 0.0 0.0 0.00 0.36 0.08 60 1019.4
20260831101618 17 70 0.0 0.0 0.00 0.36 0.08 60 1019.2
20260831100615 17 69 0.0 1.6 0.00 0.36 0.08 60 1019.1
20260831095615 17 89 0.0 1.6 0.00 0.36 0.08 60 1018.9
20260831095117 17 221 0.0 0.0 0.00 0.36 0.08 60 1018.7
20260831093616 17 233 0.0 0.0 0.00 0.36 0.08 60 1018.7
20260831092616 17 233 0.0 0.0 0.00 0.36 0.08 59 1018.7
20260831091617 18 233 0.0 0.0 0.00 0.36 0.08 59 1018.6
20260831090615 18 233 0.0 0.0 0.00 0.36 0.08 59 1018.5
20260831085616 18 233 0.0 0.0 0.00 0.36 0.08 59 1018.5
20260831084616 18 233 0.0 0.0 0.00 0.36 0.08 59 1018.3
20260831083617 18 233 0.0 0.0 0.00 0.36 0.08 59 1018.3
20260831082616 18 233 0.0 0.0 0.00 0.36 0.08 59 1018.2
20260831081619 18 233 0.0 0.0 0.00 0.36 0.08 59 1018.1
20260831080620 18 233 0.0 0.0 0.00 0.36 0.08 59 1018.1
20260831075616 18 233 0.0 0.0 0.00 0.36 0.08 59 1018.0
20260831074617 18 233 0.0 1.6 0.00 0.36 0.08 59 1017.9
20260831073617 18 225 0.0 0.0 0.00 0.36 0.08 59 1017.8
20260831072615 18 122 0.0 0.0 0.00 0.36 0.08 59 1017.7
20260831071616 19 121 0.0 0.0 0.00 0.36 0.08 59 1017.6
20260831070616 19 122 0.0 0.0 0.00 0.36 0.08 59 1017.6
20260831065616 19 122 0.0 0.0 0.00 0.36 0.08 59 1017.5
20260831065116 19 121 0.0 0.0 0.00 0.36 0.08 59 1017.6
20260831063615 19 121 0.0 0.0 0.00 0.36 0.08 59 1017.5
20260831062617 19 122 0.0 0.0 0.00 0.36 0.08 59 1017.4
20260831061617 20 121 0.0 0.0 0.00 0.36 0.08 59 1017.5
20260831060616 20 121 0.0 0.0 0.03 0.36 0.08 58 1017.4
20260831055628 20 121 0.0 1.6 0.08 0.36 0.08 58 1017.3
20260831055119 20 121 0.0 0.0 0.08 0.36 0.08 58 1017.4
20260831053616 20 122 0.0 0.0 0.08 0.36 0.08 58 1017.3
20260831052617 20 122 0.0 0.0 0.08 0.36 0.08 58 1017.2
20260831051616 20 121 0.0 1.6 0.08 0.36 0.08 58 1017.3
20260831050618 20 245 0.0 0.0 0.05 0.33 0.05 58 1017.4
20260831045616 20 245 0.0 1.6 0.00 0.28 0.00 58 1017.4
20260831044615 20 245 0.0 1.6 0.03 0.28 0.00 58 1017.5
20260831043617 20 245 0.0 0.0 0.05 0.28 0.00 58 1017.5
20260831042615 20 245 0.0 0.0 0.18 0.28 0.00 59 1017.4
20260831041618 20 245 0.0 0.0 0.18 0.28 0.00 59 1017.4
20260831041130 20 262 0.0 0.0 0.20 0.28 0.00 59 1017.5
20260831035614 20 262 0.0 0.0 0.23 0.28 0.28 59 1017.4
20260831034615 20 262 0.0 0.0 0.23 0.25 0.25 59 1017.5
20260831034117 20 262 0.0 0.0 0.20 0.23 0.23 60 1017.5
20260831032615 20 262 0.0 1.6 0.08 0.10 0.10 60 1017.6
20260831031616 20 229 0.0 1.6 0.08 0.10 0.10 60 1017.6
20260831030613 20 229 0.0 1.6 0.08 0.08 0.08 61 1017.7
20260831025614 20 255 0.0 1.6 0.05 0.05 0.05 62 1017.8
20260831024615 21 262 0.0 1.6 0.03 0.03 0.03 63 1017.8
20260831023614 21 264 0.0 1.6 0.03 0.03 0.03 63 1017.7
20260831022614 21 236 0.0 1.6 0.03 0.03 0.03 64 1017.5
20260831021615 21 247 0.0 1.6 0.03 0.03 0.03 65 1017.6
20260831021117 21 248 0.0 3.2 0.00 0.00 0.00 67 1017.8
20260831020114 21 224 0.0 1.6 0.00 0.00 0.00 67 1017.8
20260831015117 21 212 0.0 1.6 0.00 0.00 0.00 67 1017.5
20260831013614 21 210 0.0 1.6 0.00 0.00 0.00 67 1017.7
20260831012613 21 232 0.0 1.6 0.00 0.00 0.00 66 1017.5
20260831011615 21 232 0.0 1.6 0.00 0.00 0.00 66 1017.6
20260831010613 21 270 0.0 1.6 0.00 0.00 0.00 66 1017.5
20260831010117 21 242 0.0 1.6 0.00 0.00 0.00 67 1017.4
20260831004613 21 218 0.0 1.6 0.00 0.00 0.00 68 1017.5
20260831003616 22 225 0.0 1.6 0.00 0.00 0.00 70 1017.5
20260831002614 22 268 0.0 1.6 0.00 0.00 0.00 71 1017.4
20260831001615 22 215 0.0 1.6 0.00 0.00 0.00 73 1017.3
20260831000614 22 211 0.0 1.6 0.00 0.00 0.00 73 1017.2
20260830235614 22 212 0.0 1.6 0.00 0.00 0.00 74 1017.1
20260830235117 22 219 0.0 1.6 0.00 0.00 0.00 75 1017.0
20260830234115 22 257 0.0 1.6 0.00 0.00 0.00 75 1017.3
20260830233117 22 228 0.0 1.6 0.00 0.00 0.00 75 1017.0
20260830231620 23 256 0.0 1.6 0.00 0.00 0.00 75 1017.1
20260830231615 23 225 0.0 1.6 0.00 0.00 0.00 75 1017.1
20260830230115 23 172 0.0 1.6 0.00 0.00 0.00 74 1017.1
20260830224615 23 235 0.0 1.6 0.00 0.00 0.00 73 1017.3
20260830223615 23 215 0.0 1.6 0.00 0.00 0.00 72 1017.4
20260830223115 23 219 0.0 1.6 0.00 0.00 0.00 71 1017.4
20260830221616 24 217 0.0 1.6 0.00 0.00 0.00 70 1017.5
20260830220614 24 221 0.0 1.6 0.00 0.00 0.00 70 1017.3
20260830215614 24 212 0.0 1.6 0.00 0.00 0.00 70 1017.4
20260830214615 24 210 0.0 1.6 0.00 0.00 0.00 69 1017.5
20260830214115 25 206 0.0 1.6 0.00 0.00 0.00 68 1017.5
20260830213116 25 208 0.0 1.6 0.00 0.00 0.00 65 1017.5
20260830211615 25 245 0.0 1.6 0.00 0.00 0.00 63 1017.5
20260830210616 25 207 0.0 1.6 0.00 0.00 0.00 61 1017.5
20260830205614 26 220 0.0 1.6 0.00 0.00 0.00 59 1017.5
20260830204615 26 242 0.0 1.6 0.00 0.00 0.00 61 1017.5
20260830203614 26 240 0.0 1.6 0.00 0.00 0.00 59 1017.6
20260830202614 26 226 0.0 4.8 0.00 0.00 0.00 58 1017.5
20260830201615 27 246 1.6 11.3 0.00 0.00 0.00 59 1017.5
20260830200614 27 212 0.0 8.0 0.00 0.00 0.00 58 1017.6
20260830195616 27 221 0.0 4.8 0.00 0.00 0.00 62 1017.7
20260830194625 27 263 0.0 1.6 0.00 0.00 0.00 62 1017.7
20260830193614 27 210 0.0 1.6 0.00 0.00 0.00 60 1017.9
20260830192633 28 207 0.0 3.2 0.00 0.00 0.00 60 1017.9
20260830192626 27 234 0.0 4.8 0.00 0.00 0.00 59 1018.0
20260830191114 28 226 0.0 4.8 0.00 0.00 0.00 56 1018.1
20260830190115 28 245 1.6 6.4 0.00 0.00 0.00 53 1018.2
20260830184614 28 225 1.6 6.4 0.00 0.00 0.00 49 1018.3
20260830183614 28 248 1.6 8.0 0.00 0.00 0.00 50 1018.4
20260830182616 28 243 1.6 6.4 0.00 0.00 0.00 49 1018.5
20260830181613 28 110 1.6 12.9 0.00 0.00 0.00 50 1018.6
20260830180617 28 277 1.6 12.9 0.00 0.00 0.00 52 1018.8
20260830175614 28 215 1.6 9.7 0.00 0.00 0.00 52 1018.9
20260830175115 28 321 3.2 12.9 0.00 0.00 0.00 51 1019.0
20260830173614 28 155 1.6 9.7 0.00 0.00 0.00 51 1019.0
20260830172614 28 141 1.6 9.7 0.00 0.00 0.00 53 1019.1
20260830171614 27 210 3.2 11.3 0.00 0.00 0.00 52 1019.2
20260830171115 27 278 0.0 8.0 0.00 0.00 0.00 53 1019.2
20260830170727 27 86 1.6 4.8 0.00 0.00 0.00 58 1019.4
20260830164615 27 209 0.0 9.7 0.00 0.00 0.00 54 1019.3
20260830163614 27 240 1.6 8.0 0.00 0.00 0.00 57 1019.3
20260830162615 27 224 1.6 8.0 0.00 0.00 0.00 56 1019.4
20260830161616 27 205 1.6 6.4 0.00 0.00 0.00 57 1019.4
20260830160615 26 214 0.0 3.2 0.00 0.00 0.00 59 1019.6
20260830155615 26 225 1.6 8.0 0.00 0.00 0.00 59 1019.8
20260830154616 26 285 0.0 6.4 0.00 0.00 0.00 58 1019.9
20260830153615 26 200 1.6 6.4 0.00 0.00 0.00 60 1019.8
20260830152614 26 246 0.0 8.0 0.00 0.00 0.00 60 1020.0
20260830151613 25 265 0.0 6.4 0.00 0.00 0.00 62 1020.2
20260830150614 25 252 0.0 8.0 0.00 0.00 0.00 62 1020.4
20260830145614 25 226 0.0 6.4 0.00 0.00 0.00 63 1020.5
20260830145116 25 248 0.0 3.2 0.00 0.00 0.00 64 1020.6
20260830143613 25 244 0.0 6.4 0.00 0.00 0.00 64 1020.7
20260830142612 25 298 0.0 4.8 0.00 0.00 0.00 68 1020.7
20260830142113 24 242 0.0 3.2 0.00 0.00 0.00 70 1020.7
20260830140612 23 242 0.0 1.6 0.00 0.00 0.00 72 1020.9
20260830135615 23 256 0.0 1.6 0.00 0.00 0.00 73 1020.9
20260830134611 23 263 0.0 0.0 0.00 0.00 0.00 74 1021.1
20260830133613 22 263 0.0 1.6 0.00 0.00 0.00 74 1021.2
20260830132610 22 159 0.0 1.6 0.00 0.00 0.00 75 1021.3
20260830131611 21 159 0.0 3.2 0.00 0.00 0.00 74 1021.4
20260830130605 21 249 0.0 4.8 0.00 0.00 0.00 73 1021.4
20260830125603 20 101 0.0 0.0 0.00 0.00 0.00 72 1021.4
20260830124611 18 129 0.0 1.6 0.00 0.00 0.00 64 1021.7
20260830124605 19 101 0.0 1.6 0.00 0.00 0.00 67 1021.5
20260830123107 17 50 0.0 1.6 0.00 0.00 0.00 63 1021.7
20260830121605 17 89 0.0 1.6 0.00 0.00 0.00 62 1021.7
20260830120603 17 200 0.0 0.0 0.00 0.00 0.00 63 1021.6
20260830115604 16 200 0.0 0.0 0.00 0.00 0.00 62 1021.6
20260830115106 16 203 0.0 1.6 0.00 0.00 0.00 62 1021.7
20260830113605 16 195 0.0 1.6 0.00 0.00 0.00 62 1021.6
20260830112603 16 195 0.0 0.0 0.00 0.00 0.00 62 1021.6